Starlink 5492

operational
NORAD ID: 55331 Int'l Des: 2023-013 Owner: SPXS Country: US Constellation: starlink
LEOCIRCULAR

关于 Starlink 5492

正在加载描述...

实时位置

正在加载3D地球...

即将过境

高度历史

Altitude vs Time

uPlot chart will show altitude changes over time

两行轨道根数

1 55331U 23013A 26033.31650623 .00001130 00000-0 98724-4 0 9995
2 55331 43.0039 132.9516 0001473 273.4212 86.6462 15.02535144167467
Epoch: Feb 2, 2026 • Age: 20 hours

当前状态

高度 560.8 km
速度 7.59 km/s
星下点 31.71°N, 84.2°E
发射日期 Jan 26, 2023
运行时间 3 years
类型 internet

技术详情

分类 Payload
质量 305.00 kg
干质量 290.00 kg
总质量 305.00 kg
长度 0.20 m
直径 2.80 m
跨度 9.00 m
形状 Box + pan
制造商 SPXS
平台类型 Starlink
阶段状态 In Orbit
所有者/国家 SPXS/US

大型星座

Loading constellations...